Hourly Weather Afa

Today, 7 March, Sunday

Time Temperature Precipitation Wind Pressure Humidity
00:00 +6°C° 0 mm 2 mps 709 mmHg 83%
01:00 +6°C° 0 mm 2 mps 709 mmHg 83%
02:00 +6°C° 0 mm 2 mps 708 mmHg 83%
03:00 +6°C° 0 mm 2 mps 708 mmHg 83%
04:00 +6°C° 0 mm 2 mps 708 mmHg 84%
05:00 +6°C° 0 mm 2 mps 708 mmHg 83%
06:00 +6°C° 0 mm 2 mps 708 mmHg 83%
07:00 +7°C° 0 mm 1 mps 707 mmHg 82%
08:00 +9°C° 0 mm 1 mps 708 mmHg 76%
09:00 +10°C° 0 mm 1 mps 708 mmHg 70%
10:00 +12°C° 0 mm 1 mps 708 mmHg 64%
11:00 +12°C° 0 mm 1 mps 708 mmHg 63%
12:00 +13°C° 0 mm 1 mps 708 mmHg 62%
13:00 +13°C° 0 mm 1 mps 707 mmHg 63%
14:00 +12°C° 0.1 mm 2 mps 707 mmHg 65%
15:00 +12°C° 0.1 mm 2 mps 706 mmHg 67%
16:00 +12°C° 0.1 mm 2 mps 706 mmHg 70%
17:00 +10°C° 0 mm 2 mps 705 mmHg 76%
18:00 +9°C° 0 mm 1 mps 705 mmHg 82%
19:00 +8°C° 0 mm 1 mps 705 mmHg 88%
20:00 +8°C° 0 mm 1 mps 705 mmHg 87%
21:00 +8°C° 0 mm 1 mps 705 mmHg 86%
22:00 +8°C° 0 mm 1 mps 704 mmHg 85%
23:00 +8°C° 0 mm 1 mps 704 mmHg 83%

Tomorrow, 8 March, Monday

Time Temperature Precipitation Wind Pressure Humidity
00:00 +8°C° 0 mm 1 mps 704 mmHg 80%
01:00 +8°C° 0 mm 1 mps 703 mmHg 77%
02:00 +8°C° 0 mm 1 mps 703 mmHg 76%
03:00 +8°C° 0 mm 1 mps 702 mmHg 74%
04:00 +7°C° 0 mm 2 mps 702 mmHg 73%
05:00 +8°C° 0 mm 1 mps 702 mmHg 73%
06:00 +8°C° 0 mm 1 mps 702 mmHg 72%
07:00 +8°C° 0 mm 1 mps 702 mmHg 72%
08:00 +9°C° 0 mm 1 mps 702 mmHg 70%
09:00 +10°C° 0 mm 1 mps 702 mmHg 67%
10:00 +12°C° 0 mm 1 mps 703 mmHg 65%
11:00 +12°C° 0.1 mm 1 mps 702 mmHg 64%
12:00 +13°C° 0.1 mm 1 mps 702 mmHg 64%
13:00 +13°C° 0.1 mm 2 mps 702 mmHg 63%
14:00 +13°C° 0.1 mm 2 mps 702 mmHg 66%
15:00 +12°C° 0.1 mm 2 mps 702 mmHg 70%
16:00 +12°C° 0.1 mm 2 mps 701 mmHg 74%
17:00 +10°C° 0.1 mm 2 mps 701 mmHg 78%
18:00 +9°C° 0.1 mm 2 mps 701 mmHg 82%
19:00 +9°C° 0.1 mm 1 mps 701 mmHg 86%
20:00 +8°C° 0 mm 2 mps 701 mmHg 86%
21:00 +8°C° 0 mm 2 mps 701 mmHg 86%
22:00 +8°C° 0 mm 2 mps 702 mmHg 86%
23:00 +7°C° 0.1 mm 2 mps 701 mmHg 88%

Day after tomorrow, 9 March, Tuesday

Time Temperature Precipitation Wind Pressure Humidity
00:00 +7°C° 0.1 mm 2 mps 701 mmHg 89%
01:00 +7°C° 0.1 mm 2 mps 701 mmHg 91%
02:00 +8°C° 0 mm 1 mps 701 mmHg 90%
03:00 +8°C° 0 mm 1 mps 701 mmHg 90%
04:00 +8°C° 0 mm 1 mps 701 mmHg 89%
05:00 +8°C° 0.1 mm 1 mps 701 mmHg 89%
06:00 +8°C° 0.1 mm 1 mps 701 mmHg 89%
07:00 +8°C° 0.1 mm 1 mps 701 mmHg 88%
08:00 +8°C° 0.1 mm 1 mps 701 mmHg 85%
09:00 +9°C° 0.1 mm 1 mps 701 mmHg 82%
10:00 +10°C° 0.1 mm 1 mps 702 mmHg 79%
11:00 +11°C° 0.3 mm 1 mps 702 mmHg 79%
12:00 +10°C° 0.3 mm 2 mps 702 mmHg 79%
13:00 +10°C° 0.3 mm 3 mps 702 mmHg 79%
14:00 +10°C° 0.4 mm 3 mps 702 mmHg 81%
15:00 +9°C° 0.4 mm 3 mps 702 mmHg 82%
16:00 +9°C° 0.4 mm 3 mps 701 mmHg 83%
17:00 +8°C° 0.2 mm 3 mps 702 mmHg 85%
18:00 +7°C° 0.2 mm 3 mps 702 mmHg 88%
19:00 +7°C° 0.2 mm 3 mps 702 mmHg 90%
20:00 +5°C° 0 mm 3 mps 702 mmHg 89%
21:00 +5°C° 0 mm 3 mps 703 mmHg 88%
22:00 +6°C° 0 mm 2 mps 703 mmHg 87%
23:00 +6°C° 0.1 mm 2 mps 703 mmHg 86%

10 March, Wednesday

Time Temperature Precipitation Wind Pressure Humidity
00:00 +5°C° 0.1 mm 2 mps 703 mmHg 86%
01:00 +5°C° 0.1 mm 2 mps 703 mmHg 86%
02:00 +4°C° 0 mm 2 mps 703 mmHg 86%
03:00 +4°C° 0 mm 2 mps 703 mmHg 86%
04:00 +4°C° 0 mm 2 mps 703 mmHg 86%
05:00 +4°C° 0 mm 2 mps 703 mmHg 85%
06:00 +4°C° 0 mm 2 mps 704 mmHg 85%
07:00 +4°C° 0 mm 2 mps 704 mmHg 84%
08:00 +5°C° 0 mm 2 mps 705 mmHg 78%
09:00 +8°C° 0 mm 1 mps 705 mmHg 72%
10:00 +10°C° 0 mm 1 mps 706 mmHg 65%
11:00 +10°C° 0 mm 2 mps 706 mmHg 63%
12:00 +10°C° 0 mm 2 mps 707 mmHg 61%
13:00 +11°C° 0 mm 3 mps 707 mmHg 59%
14:00 +10°C° 0 mm 2 mps 707 mmHg 61%
15:00 +10°C° 0 mm 2 mps 707 mmHg 64%
16:00 +10°C° 0 mm 2 mps 707 mmHg 67%
17:00 +8°C° 0 mm 2 mps 707 mmHg 73%
18:00 +8°C° 0 mm 1 mps 707 mmHg 80%
19:00 +6°C° 0 mm 1 mps 707 mmHg 86%
20:00 +6°C° 0 mm 1 mps 708 mmHg 86%
21:00 +6°C° 0 mm 1 mps 708 mmHg 86%
22:00 +6°C° 0 mm 1 mps 709 mmHg 85%
23:00 +5°C° 0 mm 1 mps 709 mmHg 83%

11 March, Thursday

Time Temperature Precipitation Wind Pressure Humidity
00:00 +5°C° 0 mm 1 mps 709 mmHg 81%
01:00 +5°C° 0 mm 1 mps 709 mmHg 79%
02:00 +5°C° 0 mm 1 mps 709 mmHg 79%
03:00 +4°C° 0 mm 2 mps 709 mmHg 79%
04:00 +4°C° 0 mm 2 mps 709 mmHg 80%
05:00 +4°C° 0 mm 2 mps 709 mmHg 80%
06:00 +3°C° 0 mm 2 mps 709 mmHg 80%
07:00 +3°C° 0 mm 2 mps 709 mmHg 80%
08:00 +6°C° 0 mm 2 mps 710 mmHg 71%
09:00 +8°C° 0 mm 2 mps 710 mmHg 63%
10:00 +10°C° 0 mm 2 mps 711 mmHg 54%
11:00 +10°C° 0 mm 2 mps 711 mmHg 53%
12:00 +11°C° 0 mm 3 mps 711 mmHg 51%
13:00 +11°C° 0 mm 3 mps 711 mmHg 50%
14:00 +11°C° 0 mm 3 mps 710 mmHg 53%
15:00 +10°C° 0 mm 3 mps 710 mmHg 57%
16:00 +10°C° 0 mm 3 mps 710 mmHg 60%
17:00 +8°C° 0 mm 3 mps 709 mmHg 68%
18:00 +7°C° 0 mm 2 mps 709 mmHg 76%
19:00 +6°C° 0 mm 2 mps 709 mmHg 84%
20:00 +5°C° 0 mm 2 mps 709 mmHg 78%
21:00 +5°C° 0 mm 2 mps 709 mmHg 73%
22:00 +4°C° 0 mm 3 mps 709 mmHg 67%
23:00 +4°C° 0 mm 3 mps 709 mmHg 69%

12 March, Friday

Time Temperature Precipitation Wind Pressure Humidity
00:00 +4°C° 0 mm 3 mps 709 mmHg 72%
01:00 +5°C° 0 mm 3 mps 708 mmHg 74%
02:00 +5°C° 0 mm 3 mps 708 mmHg 76%
03:00 +5°C° 0 mm 3 mps 708 mmHg 77%
04:00 +5°C° 0 mm 3 mps 707 mmHg 79%
05:00 +5°C° 0.1 mm 3 mps 707 mmHg 82%
06:00 +7°C° 0.1 mm 3 mps 707 mmHg 85%
07:00 +7°C° 0.1 mm 3 mps 707 mmHg 88%
08:00 +8°C° 0.1 mm 3 mps 707 mmHg 86%
09:00 +8°C° 0.1 mm 3 mps 707 mmHg 84%
10:00 +9°C° 0.1 mm 3 mps 707 mmHg 81%
11:00 +9°C° 0.1 mm 3 mps 707 mmHg 82%
12:00 +10°C° 0.1 mm 4 mps 707 mmHg 83%
13:00 +10°C° 0.1 mm 4 mps 707 mmHg 83%
14:00 +8°C° 0.1 mm 4 mps 706 mmHg 85%
15:00 +8°C° 0.1 mm 4 mps 706 mmHg 87%
16:00 +8°C° 0.1 mm 4 mps 705 mmHg 89%
17:00 +9°C° 0.1 mm 3 mps 705 mmHg 91%
18:00 +8°C° 0.1 mm 3 mps 705 mmHg 92%
19:00 +8°C° 0.1 mm 3 mps 705 mmHg 93%
20:00 +8°C° 0.2 mm 3 mps 705 mmHg 93%
21:00 +8°C° 0.2 mm 3 mps 705 mmHg 93%
22:00 +8°C° 0.2 mm 2 mps 705 mmHg 93%
23:00 +8°C° 0.2 mm 2 mps 705 mmHg 93%
Show more